[[{"header":{"parameterUnit":"m.s-1","parameterCategory":1,"la1":30.2991,"la2":30.254,"lo1":-89.0895,"lo2":-89.0444,"dy":0.0017,"dx":0.0017,"nx":28,"ny":28,"refTime":"2024-05-20T21:00:00:Z","depth":0,"parameterNumber":2,"parameterNumberName":"U-component_of_WINDS"},"data":[0,0,0,0,0,0,0,0,0,0,0,0,0,0,0,0,0,0,0,0,0,0,0,0,0,0,0,0,0,0,0,0,0,0,0,0,0,0,0,0,0,0,0,0,0,0,0,0,0,0,0,0,0,0,0,0,0,0,-2.6996,-2.6996,0,-2.6975,-2.6974,-2.6974,-2.6929,-2.6928,-2.6927,-2.6926,-2.6905,-2.6905,-2.6905,0,0,0,0,0,0,0,0,0,0,0,0,0,-2.7001,-2.7001,-2.6996,-2.6996,-2.6996,-2.6975,-2.6974,-2.6974,-2.6929,-2.6928,-2.6927,-2.6926,-2.6905,-2.6905,-2.6905,0,0,0,0,0,0,0,0,0,0,0,0,0,-2.6991,-2.7001,-2.6996,-2.6971,-2.6968,-2.6975,-2.6974,-2.6974,-2.6929,-2.6928,-2.6927,-2.6925,-2.6904,-2.6905,-2.6905,-2.6935,0,0,-2.6906,-2.6907,0,0,0,0,0,0,0,0,-2.6992,-2.6991,-2.6975,-2.6973,-2.697,-2.6953,-2.6968,-2.6961,-2.693,-2.6944,-2.6926,-2.6925,-2.6922,-2.6921,-2.692,-2.6934,-2.6933,-2.6907,-2.6907,-2.6907,-2.6907,0,0,0,0,0,0,0,-2.6993,-2.6992,-2.6988,-2.6975,-2.6972,-2.6961,-2.6958,-2.6966,-2.6941,-2.6943,-2.694,-2.6938,-2.692,-2.6919,-2.6919,-2.6933,-2.6907,-2.6907,-2.6907,-2.6907,-2.6972,-2.6973,0,0,0,0,0,0,-2.6997,-2.6993,-2.6988,-2.6987,-2.6978,-2.6962,-2.6959,-2.696,-2.6941,-2.6937,-2.6939,-2.6936,-2.6919,-2.6918,-2.6918,-2.6952,-2.6907,-2.6907,-2.6908,-2.697,-2.6972,-2.6974,0,0,0,0,0,0,-2.6997,-2.6997,-2.6989,-2.6989,-2.6987,-2.6964,-2.6965,-2.696,-2.6959,-2.6938,-2.6933,-2.6942,-2.6918,-2.6917,-2.6931,-2.6951,-2.6907,-2.6908,-2.6969,-2.6971,-2.6973,-2.702,0,0,0,0,0,0,-2.6997,-2.6997,-2.7008,-2.699,-2.6987,-2.7003,-2.6966,-2.6961,-2.696,-2.6956,-2.694,-2.6936,-2.6917,-2.6931,-2.6932,-2.6951,-2.6908,-2.6967,-2.697,-2.6972,-2.7017,-2.7024,-2.703,0,0,0,0,0,-2.6998,-2.7022,-2.7008,-2.7008,-2.7,-2.7004,-2.7003,-2.698,-2.6962,-2.6972,-2.6959,-2.6936,-2.6949,-2.6933,-2.6933,-2.6952,-2.6965,-2.6969,-2.6972,-2.7014,-2.7023,-2.703,0,0,0,0,0,0,-2.7042,-2.7019,-2.7004,-2.7022,-2.7016,-2.6996,-2.7009,-2.699,-2.6988,-2.6984,-2.6957,-2.6954,-2.6972,-2.6964,-2.6946,-2.6981,-2.6954,-2.6957,-2.6985,-2.6993,-2.7,-2.7001,-2.6909,0,0,0,0,0,-2.7054,-2.7059,-2.7038,-2.7057,-2.7054,-2.7032,-2.7033,-2.7017,-2.7009,-2.7005,-2.6993,-2.6986,-2.6989,-2.6991,-2.6992,-2.7016,-2.7013,-2.703,-2.7036,-2.7042,-2.7045,-2.7059,-2.7066,-2.6985,-2.6985,-2.6985,0,0,-2.7079,-2.7067,-2.7071,-2.7066,-2.7058,-2.7064,-2.703,-2.7038,-2.7042,-2.7007,-2.7019,-2.701,-2.7001,-2.7021,-2.7029,-2.7014,-2.7067,-2.7046,-2.705,-2.7051,-2.7063,-2.7071,-2.7077,-2.6987,-2.6987,-2.6986,0,0,-2.7127,-2.7118,-2.7133,-2.7127,-2.7117,-2.7102,-2.7106,-2.709,-2.7083,-2.7095,-2.7069,-2.7074,-2.7079,-2.7074,-2.7072,-2.7121,-2.71,-2.7122,-2.7155,-2.7169,-2.7175,-2.7181,-2.7199,-2.7206,-2.7125,-2.7125,-2.7125,0,-2.7159,-2.7167,-2.7143,-2.7153,-2.7152,-2.7121,-2.7136,-2.7131,-2.7122,-2.7122,-2.7106,-2.7113,-2.7104,-2.7123,-2.7135,-2.7134,-2.7138,-2.7123,-2.7176,-2.7182,-2.7187,-2.7203,-2.721,-2.7128,-2.7128,-2.7128,-2.7127,0,-2.7207,-2.7213,-2.7227,-2.7219,-2.7219,-2.7232,-2.7211,-2.7215,-2.7199,-2.7187,-2.72,-2.719,-2.7188,-2.7192,-2.7176,-2.7209,-2.7201,-2.7181,-2.7153,-2.7197,-2.7213,-2.7219,-2.7132,-2.7131,-2.713,-2.713,0,0,-2.7281,-2.7261,-2.7267,-2.7263,-2.7251,-2.7255,-2.7267,-2.7266,-2.727,-2.7266,-2.7275,-2.7281,-2.7263,-2.7261,-2.7245,-2.7257,-2.7298,-2.7237,-2.7236,-2.7249,-2.7334,-2.7349,-2.7357,-2.7285,-2.7286,-2.7287,-2.7335,0,-2.7327,-2.7345,-2.7325,-2.7348,-2.7354,-2.7326,-2.7337,-2.7331,-2.732,-2.7324,-2.7312,-2.7317,-2.7293,-2.7292,-2.7303,-2.7291,-2.7315,-2.7287,-2.7294,-2.7295,-2.7297,-2.7365,-2.738,-2.7426,-2.7341,-2.7342,-2.7343,0,-2.7381,-2.738,-2.7404,-2.7391,-2.7392,-2.7402,-2.7401,-2.7405,-2.7398,-2.7389,-2.7388,-2.7369,-2.7381,-2.7355,-2.7371,-2.7353,-2.7355,-2.735,-2.7351,-2.7351,-2.7321,-2.7366,-2.744,-2.7447,-2.7352,-2.7351,-2.7351,0,-2.7434,-2.7437,-2.7452,-2.745,-2.7436,-2.7443,-2.7438,-2.743,-2.7431,-2.743,-2.7431,-2.7431,-2.7431,-2.7433,-2.7415,-2.7397,-2.7434,-2.7406,-2.7428,-2.7429,-2.7437,-2.7436,-2.7512,-2.7439,-2.7438,-2.7438,-2.7438,0,-2.7486,-2.7502,-2.7476,-2.7485,-2.7502,-2.748,-2.7498,-2.749,-2.7483,-2.7491,-2.7467,-2.7475,-2.7451,-2.7457,-2.7443,-2.7459,-2.746,-2.7454,-2.745,-2.7456,-2.7457,-2.7456,-2.7453,-2.744,-2.744,-2.7439,-2.7439,0,-2.7547,-2.753,-2.7545,-2.753,-2.7527,-2.754,-2.7528,-2.7537,-2.7525,-2.7535,-2.7537,-2.7519,-2.7525,-2.7507,-2.751,-2.7501,-2.7525,-2.7516,-2.7528,-2.7525,-2.7548,-2.7546,-2.7626,-2.7636,-2.7556,-2.7557,-2.7558,0,-2.7581,-2.7593,-2.758,-2.7584,-2.7579,-2.7585,-2.7586,-2.7566,-2.7568,-2.7562,-2.7572,-2.7576,-2.7578,-2.7589,-2.7576,-2.7579,-2.757,-2.7598,-2.757,-2.7576,-2.7571,-2.757,-2.7572,-2.7603,-2.7604,-2.7605,-2.7605,0,-2.7645,-2.7636,-2.7639,-2.7639,-2.7642,-2.7641,-2.7639,-2.7643,-2.7621,-2.7625,-2.7631,-2.7633,-2.7636,-2.7641,-2.7641,-2.7636,-2.7618,-2.7615,-2.762,-2.7626,-2.7632,-2.7629,-2.7543,-2.7613,-2.7612,-2.7611,-2.7611,-2.7611,-2.7694,-2.7703,-2.7696,-2.77,-2.7696,-2.7695,-2.7703,-2.7693,-2.7697,-2.7698,-2.7686,-2.7694,-2.7689,-2.7687,-2.7685,-2.7692,-2.7679,-2.7687,-2.7688,-2.7691,-2.7695,-2.7631,-2.7692,-2.7691,-2.7691,-2.7691,-2.7691,0,-2.7756,-2.7751,-2.7755,-2.7753,-2.7756,-2.7739,-2.7736,-2.774,-2.7748,-2.7744,-2.7747,-2.7754,-2.7759,-2.7748,-2.7751,-2.7759,-2.7751,-2.7761,-2.776,-2.7759,-2.7706,-2.7701,-2.7767,-2.7767,-2.7767,-2.7767,-2.7767,-2.7767,-2.7789,-2.7805,-2.7796,-2.7809,-2.7804,-2.7812,-2.7812,-2.7811,-2.7808,-2.7817,-2.7821,-2.7814,-2.7807,-2.781,-2.7814,-2.7811,-2.7813,-2.7826,-2.782,-2.777,-2.7763,-2.7756,-2.7751,-2.7827,-2.7827,-2.7873,-2.7873,-2.7874]},{"header":{"parameterUnit":"m.s-1","parameterCategory":1,"la1":30.2991,"la2":30.254,"lo1":-89.0895,"lo2":-89.0444,"dy":0.0017,"dx":0.0017,"nx":28,"ny":28,"refTime":"2024-05-20T21:00:00:Z","depth":0,"parameterNumber":3,"parameterNumberName":"V-component_of_WINDS"},"data":[0,0,0,0,0,0,0,0,0,0,0,0,0,0,0,0,0,0,0,0,0,0,0,0,0,0,0,0,0,0,0,0,0,0,0,0,0,0,0,0,0,0,0,0,0,0,0,0,0,0,0,0,0,0,0,0,0,0,3.1531,3.1531,0,3.1504,3.1504,3.1504,3.1544,3.1546,3.1547,3.1548,3.1517,3.1515,3.1513,0,0,0,0,0,0,0,0,0,0,0,0,0,3.1615,3.1613,3.1531,3.1531,3.1531,3.1504,3.1504,3.1504,3.1544,3.1546,3.1548,3.1549,3.1518,3.1515,3.1513,0,0,0,0,0,0,0,0,0,0,0,0,0,3.1582,3.1613,3.1531,3.1548,3.1549,3.1504,3.1504,3.1503,3.1544,3.1546,3.1548,3.155,3.1519,3.1516,3.1512,3.1449,0,0,3.1502,3.1501,0,0,0,0,0,0,0,0,3.1584,3.1579,3.1546,3.1547,3.1548,3.153,3.1522,3.1485,3.1543,3.1546,3.1549,3.1551,3.1519,3.1516,3.1506,3.1448,3.1447,3.1502,3.15,3.1499,3.1498,0,0,0,0,0,0,0,3.1586,3.1581,3.152,3.1545,3.1546,3.1556,3.1553,3.1515,3.1521,3.1545,3.1548,3.1545,3.152,3.1509,3.1506,3.1446,3.1502,3.1499,3.1497,3.1496,3.1335,3.1333,0,0,0,0,0,0,3.1587,3.1582,3.1521,3.152,3.1572,3.1552,3.155,3.1533,3.1521,3.1521,3.1543,3.1547,3.1514,3.151,3.1505,3.1431,3.1499,3.1496,3.1494,3.1337,3.1335,3.1332,0,0,0,0,0,0,3.1589,3.1581,3.1522,3.1552,3.1545,3.1549,3.153,3.1532,3.1521,3.1519,3.152,3.1531,3.1515,3.151,3.1463,3.143,3.1494,3.1491,3.134,3.1337,3.1333,3.1282,0,0,0,0,0,0,3.1591,3.1582,3.1558,3.1551,3.1543,3.1482,3.1528,3.153,3.1516,3.152,3.1508,3.1508,3.1517,3.1468,3.146,3.1427,3.1489,3.1343,3.1339,3.1335,3.1286,3.1277,3.1269,0,0,0,0,0,3.1594,3.1544,3.1557,3.1549,3.1514,3.148,3.1475,3.1487,3.1513,3.1489,3.1488,3.1509,3.1435,3.1463,3.1454,3.142,3.1345,3.134,3.1335,3.129,3.1279,3.1269,0,0,0,0,0,0,3.1546,3.1543,3.1558,3.1504,3.1492,3.1487,3.1457,3.1474,3.1454,3.1459,3.1473,3.147,3.1421,3.1416,3.1446,3.1359,3.1394,3.1387,3.1364,3.1353,3.1344,3.1346,3.1486,0,0,0,0,0,3.1529,3.1502,3.1501,3.1454,3.1447,3.1453,3.1439,3.1449,3.1436,3.1431,3.1427,3.1413,3.1387,3.137,3.1346,3.1286,3.1284,3.1258,3.1249,3.1242,3.1236,3.1204,3.1193,3.1315,3.1315,3.1315,0,0,3.1494,3.1489,3.1471,3.1444,3.1436,3.1407,3.1448,3.1416,3.1395,3.1426,3.1382,3.1379,3.1364,3.1312,3.1288,3.1306,3.1202,3.1235,3.123,3.1227,3.1198,3.1186,3.1176,3.1311,3.1312,3.1313,0,0,3.1415,3.1409,3.1369,3.1361,3.1349,3.1353,3.1344,3.1336,3.1335,3.1292,3.1315,3.129,3.1244,3.1234,3.1222,3.1141,3.1159,3.1132,3.1086,3.1055,3.1045,3.1037,3.1008,3.0997,3.1126,3.1126,3.1125,0,3.1373,3.1331,3.1346,3.1313,3.13,3.1329,3.1288,3.1279,3.1259,3.1249,3.127,3.1215,3.1207,3.1152,3.1132,3.1122,3.1111,3.1133,3.1046,3.1038,3.103,3.1002,3.0991,3.1122,3.1123,3.1123,3.1123,0,3.128,3.1251,3.122,3.1202,3.1186,3.1148,3.1157,3.1139,3.1151,3.1153,3.1109,3.1101,3.1076,3.1064,3.1074,3.101,3.1022,3.1044,3.108,3.1015,3.0989,3.0979,3.1118,3.1119,3.112,3.1121,0,0,3.1169,3.1161,3.1149,3.1142,3.1131,3.1108,3.1072,3.105,3.1034,3.1019,3.0989,3.0951,3.0972,3.0958,3.0968,3.0941,3.0877,3.0967,3.0966,3.095,3.0806,3.079,3.0777,3.0889,3.0887,3.0886,3.0808,0,3.1091,3.1031,3.1044,3.0984,3.0958,3.0985,3.0954,3.0943,3.0944,3.0921,3.0922,3.0895,3.0924,3.0917,3.0891,3.089,3.0848,3.0896,3.0861,3.086,3.0864,3.0764,3.0746,3.0672,3.0798,3.0796,3.0795,0,3.0992,3.0975,3.0913,3.0908,3.0897,3.0869,3.0849,3.0827,3.0816,3.0818,3.0804,3.0819,3.0783,3.0821,3.0771,3.0803,3.079,3.0787,3.0785,3.0781,3.0823,3.0758,3.0649,3.0638,3.0779,3.078,3.0781,0,3.0918,3.0879,3.0838,3.083,3.0823,3.0802,3.0798,3.0789,3.0774,3.0757,3.0748,3.0726,3.0713,3.0696,3.0704,3.0731,3.0653,3.0691,3.0653,3.0653,3.0635,3.0636,3.0523,3.0627,3.0627,3.0627,3.0628,0,3.0829,3.079,3.0805,3.0779,3.0736,3.0751,3.0708,3.0706,3.0698,3.0672,3.0694,3.0669,3.0682,3.0657,3.0664,3.0622,3.0616,3.0616,3.0618,3.0614,3.0614,3.0605,3.0611,3.0624,3.0625,3.0626,3.0626,0,3.0738,3.0747,3.0703,3.07,3.0698,3.0667,3.0664,3.0639,3.0643,3.0609,3.0602,3.0607,3.0579,3.0586,3.0556,3.056,3.0507,3.0516,3.0511,3.0513,3.0476,3.0479,3.0352,3.0336,3.0451,3.045,3.0449,0,3.0681,3.0652,3.0646,3.0631,3.0626,3.0601,3.0587,3.06,3.0585,3.057,3.0547,3.0522,3.0503,3.0457,3.0457,3.0434,3.0442,3.0399,3.0439,3.0436,3.0441,3.0443,3.044,3.0391,3.039,3.0389,3.0388,0,3.0579,3.0585,3.0565,3.0545,3.0528,3.0514,3.0501,3.0487,3.05,3.0481,3.0454,3.0439,3.0408,3.0383,3.0362,3.0356,3.0374,3.0376,3.0366,3.0361,3.036,3.036,3.049,3.0378,3.0379,3.038,3.0381,3.0381,3.0504,3.0479,3.0472,3.0448,3.044,3.0428,3.0405,3.0406,3.0385,3.0362,3.0371,3.034,3.033,3.0304,3.0296,3.0271,3.0287,3.0273,3.0269,3.0265,3.026,3.0364,3.0267,3.0267,3.0268,3.0268,3.0268,0,3.0403,3.0399,3.0378,3.036,3.0341,3.0361,3.0348,3.0331,3.0304,3.0293,3.0274,3.0243,3.0219,3.0217,3.0194,3.0174,3.0182,3.0168,3.0169,3.0168,3.0247,3.0258,3.0162,3.0162,3.0162,3.0162,3.0162,3.0162,3.0348,3.0308,3.0313,3.0269,3.0266,3.0237,3.0228,3.0216,3.0208,3.0173,3.0153,3.0153,3.0146,3.0123,3.0101,3.0101,3.0091,3.0074,3.0077,3.0152,3.0162,3.0172,3.0182,3.0072,3.0072,3.0,2.9999,2.9999]}]]